When you browse on this site, cookies collect data to enhance your experience and personalize the content and advertising you see.
Visit our Privacy Policy to learn more. By continuing to use the site, you agree to this use of cookies and data.
  • In Switzerland
  • List of Countries
  • For 7 days
  • Water Temperature
  • Weather Map
  • Weather Widgets
  • user-avatar
    Login

    Hourly Weather Lathi

    Today, 6 June, Saturday

    Time Temperature Precipitation Wind Pressure Humidity
    00:00 +10°C° 0 mm 2 mps 742 mmHg 96%
    01:00 +10°C° 0 mm 2 mps 742 mmHg 96%
    02:00 +10°C° 0 mm 3 mps 742 mmHg 96%
    03:00 +11°C° 0 mm 3 mps 741 mmHg 94%
    04:00 +11°C° 0 mm 3 mps 741 mmHg 92%
    05:00 +11°C° 0 mm 3 mps 740 mmHg 91%
    06:00 +12°C° 0.3 mm 4 mps 740 mmHg 88%
    07:00 +12°C° 0.3 mm 5 mps 739 mmHg 85%
    08:00 +13°C° 0.3 mm 6 mps 739 mmHg 83%
    09:00 +13°C° 1.1 mm 6 mps 739 mmHg 87%
    10:00 +12°C° 1.1 mm 5 mps 739 mmHg 92%
    11:00 +12°C° 1.1 mm 5 mps 740 mmHg 96%
    12:00 +13°C° 0.2 mm 5 mps 740 mmHg 94%
    13:00 +14°C° 0.2 mm 4 mps 740 mmHg 91%
    14:00 +15°C° 0.2 mm 4 mps 740 mmHg 88%
    15:00 +15°C° 0.9 mm 4 mps 740 mmHg 87%
    16:00 +14°C° 0.9 mm 5 mps 740 mmHg 86%
    17:00 +14°C° 0.9 mm 5 mps 740 mmHg 86%
    18:00 +13°C° 0.1 mm 5 mps 741 mmHg 84%
    19:00 +12°C° 0.1 mm 4 mps 741 mmHg 81%
    20:00 +11°C° 0.1 mm 3 mps 741 mmHg 79%
    21:00 +11°C° 0 mm 4 mps 742 mmHg 77%
    22:00 +9°C° 0 mm 5 mps 742 mmHg 74%
    23:00 +8°C° 0 mm 5 mps 742 mmHg 71%

    Tomorrow, 7 June, Sunday

    Time Temperature Precipitation Wind Pressure Humidity
    00:00 +8°C° 0 mm 5 mps 743 mmHg 73%
    01:00 +8°C° 0 mm 6 mps 743 mmHg 74%
    02:00 +8°C° 0 mm 6 mps 744 mmHg 75%
    03:00 +9°C° 0 mm 6 mps 744 mmHg 76%
    04:00 +9°C° 0 mm 6 mps 745 mmHg 77%
    05:00 +9°C° 0 mm 6 mps 745 mmHg 78%
    06:00 +10°C° 0 mm 5 mps 746 mmHg 72%
    07:00 +13°C° 0 mm 5 mps 747 mmHg 67%
    08:00 +14°C° 0 mm 5 mps 747 mmHg 62%
    09:00 +15°C° 0 mm 5 mps 748 mmHg 57%
    10:00 +16°C° 0 mm 5 mps 748 mmHg 51%
    11:00 +17°C° 0 mm 5 mps 749 mmHg 46%
    12:00 +19°C° 0 mm 5 mps 749 mmHg 44%
    13:00 +19°C° 0 mm 5 mps 749 mmHg 41%
    14:00 +20°C° 0 mm 5 mps 750 mmHg 39%
    15:00 +19°C° 0 mm 5 mps 750 mmHg 43%
    16:00 +19°C° 0 mm 5 mps 749 mmHg 46%
    17:00 +18°C° 0 mm 4 mps 749 mmHg 50%
    18:00 +18°C° 0 mm 4 mps 749 mmHg 56%
    19:00 +17°C° 0 mm 3 mps 749 mmHg 62%
    20:00 +16°C° 0 mm 2 mps 749 mmHg 68%
    21:00 +14°C° 0 mm 2 mps 750 mmHg 73%
    22:00 +13°C° 0 mm 2 mps 750 mmHg 77%
    23:00 +12°C° 0 mm 1 mps 750 mmHg 81%

    Day after tomorrow, 8 June, Monday

    Time Temperature Precipitation Wind Pressure Humidity
    00:00 +12°C° 0 mm 1 mps 750 mmHg 82%
    01:00 +13°C° 0 mm 1 mps 750 mmHg 83%
    02:00 +12°C° 0 mm 0 mps 750 mmHg 84%
    03:00 +12°C° 0.8 mm 0 mps 750 mmHg 88%
    04:00 +12°C° 0.8 mm 1 mps 750 mmHg 91%
    05:00 +12°C° 0.8 mm 1 mps 750 mmHg 95%
    06:00 +13°C° 1.8 mm 1 mps 750 mmHg 95%
    07:00 +13°C° 1.8 mm 1 mps 750 mmHg 96%
    08:00 +13°C° 1.8 mm 2 mps 750 mmHg 96%
    09:00 +14°C° 0 mm 1 mps 750 mmHg 93%
    10:00 +15°C° 0 mm 1 mps 750 mmHg 89%
    11:00 +16°C° 0 mm 1 mps 750 mmHg 86%
    12:00 +16°C° 0.3 mm 1 mps 750 mmHg 89%
    13:00 +16°C° 0.3 mm 2 mps 750 mmHg 92%
    14:00 +15°C° 0.3 mm 2 mps 750 mmHg 94%
    15:00 +15°C° 0.7 mm 2 mps 750 mmHg 95%
    16:00 +15°C° 0.7 mm 2 mps 750 mmHg 95%
    17:00 +15°C° 0.7 mm 2 mps 750 mmHg 96%
    18:00 +15°C° 0 mm 2 mps 750 mmHg 95%
    19:00 +15°C° 0 mm 2 mps 750 mmHg 94%
    20:00 +15°C° 0 mm 1 mps 750 mmHg 93%
    21:00 +14°C° 0 mm 1 mps 751 mmHg 94%
    22:00 +14°C° 0 mm 1 mps 751 mmHg 96%
    23:00 +13°C° 0 mm 1 mps 751 mmHg 97%

    9 June, Tuesday

    Time Temperature Precipitation Wind Pressure Humidity
    00:00 +13°C° 0 mm 1 mps 751 mmHg 97%
    01:00 +13°C° 0 mm 1 mps 751 mmHg 97%
    02:00 +13°C° 0 mm 1 mps 751 mmHg 97%
    03:00 +13°C° 0 mm 2 mps 751 mmHg 97%
    04:00 +13°C° 0 mm 2 mps 751 mmHg 96%
    05:00 +14°C° 0 mm 2 mps 751 mmHg 96%
    06:00 +15°C° 0.1 mm 2 mps 751 mmHg 95%
    07:00 +15°C° 0.1 mm 2 mps 751 mmHg 95%
    08:00 +16°C° 0.1 mm 2 mps 751 mmHg 94%
    09:00 +17°C° 0.4 mm 2 mps 751 mmHg 94%
    10:00 +18°C° 0.4 mm 2 mps 751 mmHg 94%
    11:00 +19°C° 0.4 mm 2 mps 751 mmHg 94%
    12:00 +20°C° 0.3 mm 2 mps 751 mmHg 90%
    13:00 +21°C° 0.3 mm 2 mps 751 mmHg 86%
    14:00 +23°C° 0.3 mm 2 mps 751 mmHg 82%
    15:00 +23°C° 0.5 mm 2 mps 751 mmHg 80%
    16:00 +24°C° 0.5 mm 2 mps 751 mmHg 78%
    17:00 +24°C° 0.5 mm 2 mps 751 mmHg 75%
    18:00 +23°C° 0.6 mm 2 mps 751 mmHg 81%
    19:00 +20°C° 0.6 mm 2 mps 751 mmHg 86%
    20:00 +18°C° 0.6 mm 3 mps 751 mmHg 91%
    21:00 +17°C° 0 mm 3 mps 752 mmHg 93%
    22:00 +14°C° 0 mm 3 mps 752 mmHg 95%
    23:00 +13°C° 0 mm 3 mps 753 mmHg 97%

    10 June, Wednesday

    Time Temperature Precipitation Wind Pressure Humidity
    00:00 +12°C° 0 mm 3 mps 753 mmHg 96%
    01:00 +12°C° 0 mm 3 mps 753 mmHg 96%
    02:00 +11°C° 0 mm 3 mps 753 mmHg 95%
    03:00 +11°C° 0 mm 3 mps 753 mmHg 94%
    04:00 +11°C° 0 mm 3 mps 753 mmHg 92%
    05:00 +11°C° 0 mm 3 mps 753 mmHg 91%
    06:00 +12°C° 0 mm 3 mps 753 mmHg 87%
    07:00 +13°C° 0 mm 3 mps 754 mmHg 83%
    08:00 +14°C° 0 mm 3 mps 754 mmHg 78%
    09:00 +17°C° 0 mm 3 mps 754 mmHg 72%
    10:00 +18°C° 0 mm 3 mps 754 mmHg 67%
    11:00 +20°C° 0 mm 3 mps 754 mmHg 61%
    12:00 +21°C° 0 mm 3 mps 754 mmHg 57%
    13:00 +22°C° 0 mm 3 mps 754 mmHg 54%
    14:00 +22°C° 0 mm 3 mps 754 mmHg 50%
    15:00 +24°C° 0 mm 3 mps 754 mmHg 50%
    16:00 +24°C° 0 mm 2 mps 754 mmHg 49%
    17:00 +24°C° 0 mm 2 mps 753 mmHg 48%
    18:00 +21°C° 0 mm 2 mps 753 mmHg 53%
    19:00 +20°C° 0 mm 2 mps 754 mmHg 58%
    20:00 +19°C° 0 mm 2 mps 754 mmHg 63%
    21:00 +17°C° 0 mm 2 mps 754 mmHg 67%
    22:00 +16°C° 0 mm 2 mps 754 mmHg 70%
    23:00 +15°C° 0 mm 2 mps 754 mmHg 74%

    11 June, Thursday

    Time Temperature Precipitation Wind Pressure Humidity
    00:00 +14°C° 0 mm 2 mps 754 mmHg 74%
    01:00 +13°C° 0 mm 2 mps 754 mmHg 74%
    02:00 +13°C° 0 mm 2 mps 755 mmHg 74%
    03:00 +13°C° 0 mm 2 mps 755 mmHg 73%
    04:00 +14°C° 0 mm 2 mps 755 mmHg 71%
    05:00 +14°C° 0 mm 2 mps 755 mmHg 69%
    06:00 +16°C° 0 mm 3 mps 755 mmHg 63%
    07:00 +17°C° 0 mm 3 mps 755 mmHg 58%
    08:00 +19°C° 0 mm 3 mps 755 mmHg 52%
    09:00 +20°C° 0 mm 3 mps 755 mmHg 49%
    10:00 +22°C° 0 mm 3 mps 756 mmHg 47%
    11:00 +24°C° 0 mm 3 mps 756 mmHg 44%
    12:00 +25°C° 0 mm 3 mps 756 mmHg 44%
    13:00 +25°C° 0 mm 3 mps 756 mmHg 43%
    14:00 +26°C° 0 mm 3 mps 755 mmHg 42%
    15:00 +26°C° 0 mm 3 mps 755 mmHg 42%
    16:00 +26°C° 0 mm 3 mps 755 mmHg 42%
    17:00 +25°C° 0 mm 3 mps 755 mmHg 42%
    18:00 +24°C° 0 mm 3 mps 756 mmHg 48%
    19:00 +23°C° 0 mm 2 mps 756 mmHg 55%
    20:00 +20°C° 0 mm 2 mps 756 mmHg 61%
    21:00 +19°C° 0 mm 2 mps 756 mmHg 65%
    22:00 +17°C° 0 mm 2 mps 756 mmHg 70%
    23:00 +16°C° 0 mm 2 mps 757 mmHg 74%
    Show more